Location: Unspecified
(0.0000°N, 0.0000°E)
Time: 13:08:32
(UTC+00:00)

Vanguard 3 - Pass Details

Date: 12 December 2017
Orbit: 508 x 3264 km, 33.3° (Epoch: 18 July)

Event Time Altitude Azimuth Distance (km) Brightness Sun altitude
Rises 23:58:11 0° 265° (W) 5,698 - -66.9°
Reaches altitude 10° 00:02:27 10° 253° (WSW) 5,081 - -66.8°
Exits shadow 00:09:25 24° 227° (SW) 4,531 10.9 -66.6°
Maximum altitude 00:15:10 28° 201° (SSW) 4,562 10.9 -66.3°
Drops below altitude 10° 00:30:50 10° 149° (SSE) 6,197 11.8 -65.2°
Sets 00:36:59 0° 137° (SE) 7,108 12.3 -64.6°
